sat.trackr.live / text

‹ back to catalog

STARLINK-2474

NORAD 48132 · 2021-027AS

PAYLOAD ACTIVE UNKNOWN

§ Identity

Operator
Country
US
Launch date
2021-04-07
Launch site
AFETR
Launch vehicle
Mass (kg)
RCS (m²)

Purposes: comms

External: N2YO · Heavens-Above · Gunter

§ Orbital elements

Epoch: 2026-09-19T19:37:23.572416Z

Period
94.01 min
Inclination
53.1620°
Eccentricity
0.0001224
Mean motion
15.31713681 rev/d
Perigee alt
469.9 km
Apogee alt
471.5 km
Semi-major
6,848.8 km
B*
-4.6395e-5
RAAN
344.3467°
Arg perigee
93.0313°
Mean anomaly
267.0828°
Rev number
30,221

§ Raw data

STARLINK-24741 48132U 21027AS  26262.81763394 -.00001805  00000+0 -46395-4 0  99952 48132  53.1620 344.3467 0001224  93.0313 267.0828 15.31713681302213

JSON: /api/v1/satellites/48132 · /tle

For live sub-satellite position, see the globe view (requires WebGL).

§ Visibility from observer

Set your observer location to see the next 7 days of passes ≥ 10°. The values pass through the URL so the page stays shareable.

No JS? Fill the form by hand. The geolocation button needs JavaScript.